owner,sensor,date,latitude,longitude,air_pressure(mBar),qcFlag 
WAVCIS,ioos:station:WAVCIS:CSI03:1,2013-10-01T00:00:00Z,29.4412,-92.0613,1005.5,11111222 
WAVCIS,ioos:station:WAVCIS:CSI03:1,2013-10-01T01:00:00Z,29.4412,-92.0613,1005.31,11111222 
WAVCIS,ioos:station:WAVCIS:CSI03:1,2013-10-01T02:00:00Z,29.4412,-92.0613,1005.91,11111222 
WAVCIS,ioos:station:WAVCIS:CSI03:1,2013-10-01T03:00:00Z,29.4412,-92.0613,1006.72,11111222 
WAVCIS,ioos:station:WAVCIS:CSI03:1,2013-10-01T04:00:00Z,29.4412,-92.0613,1006.95,11111222 
WAVCIS,ioos:station:WAVCIS:CSI03:1,2013-10-01T05:00:00Z,29.4412,-92.0613,1006.62,11111222 
WAVCIS,ioos:station:WAVCIS:CSI03:1,2013-10-01T06:00:00Z,29.4412,-92.0613,1006.56,11111222 
WAVCIS,ioos:station:WAVCIS:CSI03:1,2013-10-01T07:00:00Z,29.4412,-92.0613,1006.45,11111222 
WAVCIS,ioos:station:WAVCIS:CSI03:1,2013-10-01T08:00:00Z,29.4412,-92.0613,1006.07,11111222 
WAVCIS,ioos:station:WAVCIS:CSI03:1,2013-10-01T09:00:00Z,29.4412,-92.0613,1006.19,11111222 
WAVCIS,ioos:station:WAVCIS:CSI03:1,2013-10-01T10:00:00Z,29.4412,-92.0613,1006.42,11111222 
WAVCIS,ioos:station:WAVCIS:CSI03:1,2013-10-01T11:00:00Z,29.4412,-92.0613,1007.2,11111222 
WAVCIS,ioos:station:WAVCIS:CSI03:1,2013-10-01T12:00:00Z,29.4412,-92.0613,1008.64,11111222 
WAVCIS,ioos:station:WAVCIS:CSI03:1,2013-10-01T13:00:00Z,29.4412,-92.0613,1007.75,11111222 
WAVCIS,ioos:station:WAVCIS:CSI03:1,2013-10-01T14:00:00Z,29.4412,-92.0613,1008.4,11111222 
WAVCIS,ioos:station:WAVCIS:CSI03:1,2013-10-01T15:00:00Z,29.4412,-92.0613,1008.89,11111222 
WAVCIS,ioos:station:WAVCIS:CSI03:1,2013-10-01T16:00:00Z,29.4412,-92.0613,1009.35,11111222 
WAVCIS,ioos:station:WAVCIS:CSI03:1,2013-10-01T17:00:00Z,29.4412,-92.0613,1009.21,11111222 
WAVCIS,ioos:station:WAVCIS:CSI03:1,2013-10-01T18:00:00Z,29.4412,-92.0613,1009.23,11111222 
WAVCIS,ioos:station:WAVCIS:CSI03:1,2013-10-01T19:00:00Z,29.4412,-92.0613,1009.29,11111222 
WAVCIS,ioos:station:WAVCIS:CSI03:1,2013-10-01T20:00:00Z,29.4412,-92.0613,1008.14,11111222 
WAVCIS,ioos:station:WAVCIS:CSI03:1,2013-10-01T21:00:00Z,29.4412,-92.0613,1008.46,11111222 
WAVCIS,ioos:station:WAVCIS:CSI03:1,2013-10-01T22:00:00Z,29.4412,-92.0613,1008.14,11111222 
WAVCIS,ioos:station:WAVCIS:CSI03:1,2013-10-01T23:00:00Z,29.4412,-92.0613,1008.42,11111222 
WAVCIS,ioos:station:WAVCIS:CSI03:1,2013-10-02T00:00:00Z,29.4412,-92.0613,1008.07,11111222 
WAVCIS,ioos:station:WAVCIS:CSI03:1,2013-10-02T01:00:00Z,29.4412,-92.0613,1007.63,11111222 
WAVCIS,ioos:station:WAVCIS:CSI03:1,2013-10-02T02:00:00Z,29.4412,-92.0613,1008.4,11111222 
WAVCIS,ioos:station:WAVCIS:CSI03:1,2013-10-02T03:00:00Z,29.4412,-92.0613,1008.58,11111222 
WAVCIS,ioos:station:WAVCIS:CSI03:1,2013-10-02T04:00:00Z,29.4412,-92.0613,1008.85,11111222 
WAVCIS,ioos:station:WAVCIS:CSI03:1,2013-10-02T05:00:00Z,29.4412,-92.0613,1009.08,11111222 
WAVCIS,ioos:station:WAVCIS:CSI03:1,2013-10-02T06:00:00Z,29.4412,-92.0613,1008.91,11111222 
WAVCIS,ioos:station:WAVCIS:CSI03:1,2013-10-02T07:00:00Z,29.4412,-92.0613,1008.66,11111222 
WAVCIS,ioos:station:WAVCIS:CSI03:1,2013-10-02T08:00:00Z,29.4412,-92.0613,1008.29,11111222 
WAVCIS,ioos:station:WAVCIS:CSI03:1,2013-10-02T09:00:00Z,29.4412,-92.0613,1007.87,11111222 
WAVCIS,ioos:station:WAVCIS:CSI03:1,2013-10-02T10:00:00Z,29.4412,-92.0613,1007.93,11111222 
WAVCIS,ioos:station:WAVCIS:CSI03:1,2013-10-02T11:00:00Z,29.4412,-92.0613,1008.13,11111222 
WAVCIS,ioos:station:WAVCIS:CSI03:1,2013-10-02T12:00:00Z,29.4412,-92.0613,1008.31,11111222 
WAVCIS,ioos:station:WAVCIS:CSI03:1,2013-10-02T13:00:00Z,29.4412,-92.0613,1008.6,11111222 
WAVCIS,ioos:station:WAVCIS:CSI03:1,2013-10-02T14:00:00Z,29.4412,-92.0613,1008.97,11111222 
WAVCIS,ioos:station:WAVCIS:CSI03:1,2013-10-02T15:00:00Z,29.4412,-92.0613,1009.48,11111222 
WAVCIS,ioos:station:WAVCIS:CSI03:1,2013-10-02T16:00:00Z,29.4412,-92.0613,1009.99,11111222 
WAVCIS,ioos:station:WAVCIS:CSI03:1,2013-10-02T17:00:00Z,29.4412,-92.0613,1009.91,11111222 
WAVCIS,ioos:station:WAVCIS:CSI03:1,2013-10-02T18:00:00Z,29.4412,-92.0613,1009.34,11111222 
WAVCIS,ioos:station:WAVCIS:CSI03:1,2013-10-02T19:00:00Z,29.4412,-92.0613,1008.46,11111222 
WAVCIS,ioos:station:WAVCIS:CSI03:1,2013-10-02T20:00:00Z,29.4412,-92.0613,1008.03,11111222 
WAVCIS,ioos:station:WAVCIS:CSI03:1,2013-10-02T21:00:00Z,29.4412,-92.0613,1007.86,11111222 
WAVCIS,ioos:station:WAVCIS:CSI03:1,2013-10-02T22:00:00Z,29.4412,-92.0613,1007.63,11111222 
WAVCIS,ioos:station:WAVCIS:CSI03:1,2013-10-02T23:00:00Z,29.4412,-92.0613,1007.55,11111222 
WAVCIS,ioos:station:WAVCIS:CSI03:1,2013-10-03T00:00:00Z,29.4412,-92.0613,1007.43,11111222 
WAVCIS,ioos:station:WAVCIS:CSI03:1,2013-10-03T01:00:00Z,29.4412,-92.0613,1007.65,11111222 
WAVCIS,ioos:station:WAVCIS:CSI03:1,2013-10-03T02:00:00Z,29.4412,-92.0613,1008.22,11111222 
WAVCIS,ioos:station:WAVCIS:CSI03:1,2013-10-03T03:00:00Z,29.4412,-92.0613,1008.68,11111222 
WAVCIS,ioos:station:WAVCIS:CSI03:1,2013-10-03T04:00:00Z,29.4412,-92.0613,1008.5,11111222 
WAVCIS,ioos:station:WAVCIS:CSI03:1,2013-10-03T05:00:00Z,29.4412,-92.0613,1008.55,11111222 
WAVCIS,ioos:station:WAVCIS:CSI03:1,2013-10-03T06:00:00Z,29.4412,-92.0613,1008.26,11111222 
WAVCIS,ioos:station:WAVCIS:CSI03:1,2013-10-03T07:00:00Z,29.4412,-92.0613,1007.5,11111222 
WAVCIS,ioos:station:WAVCIS:CSI03:1,2013-10-03T08:00:00Z,29.4412,-92.0613,1007.04,11111222 
WAVCIS,ioos:station:WAVCIS:CSI03:1,2013-10-03T09:00:00Z,29.4412,-92.0613,1006.72,11111222 
WAVCIS,ioos:station:WAVCIS:CSI03:1,2013-10-03T10:00:00Z,29.4412,-92.0613,1006.74,11111222 
WAVCIS,ioos:station:WAVCIS:CSI03:1,2013-10-03T11:00:00Z,29.4412,-92.0613,1007.1,11111222 
WAVCIS,ioos:station:WAVCIS:CSI03:1,2013-10-03T12:00:00Z,29.4412,-92.0613,1007.44,11111222 
WAVCIS,ioos:station:WAVCIS:CSI03:1,2013-10-03T13:00:00Z,29.4412,-92.0613,1007.99,11111222 
WAVCIS,ioos:station:WAVCIS:CSI03:1,2013-10-03T14:00:00Z,29.4412,-92.0613,1008.75,11111222 
WAVCIS,ioos:station:WAVCIS:CSI03:1,2013-10-03T15:00:00Z,29.4412,-92.0613,1009.46,11111222 
WAVCIS,ioos:station:WAVCIS:CSI03:1,2013-10-03T16:00:00Z,29.4412,-92.0613,1009.49,11111222 
WAVCIS,ioos:station:WAVCIS:CSI03:1,2013-10-03T17:00:00Z,29.4412,-92.0613,1009.16,11111222 
WAVCIS,ioos:station:WAVCIS:CSI03:1,2013-10-03T18:00:00Z,29.4412,-92.0613,1008.8,11111222 
WAVCIS,ioos:station:WAVCIS:CSI03:1,2013-10-03T19:00:00Z,29.4412,-92.0613,1008.13,11111222 
WAVCIS,ioos:station:WAVCIS:CSI03:1,2013-10-03T20:00:00Z,29.4412,-92.0613,1007.35,11111222 
WAVCIS,ioos:station:WAVCIS:CSI03:1,2013-10-03T21:00:00Z,29.4412,-92.0613,1006.98,11111222 
WAVCIS,ioos:station:WAVCIS:CSI03:1,2013-10-03T22:00:00Z,29.4412,-92.0613,1006.71,11111222 
WAVCIS,ioos:station:WAVCIS:CSI03:1,2013-10-03T23:00:00Z,29.4412,-92.0613,1006.53,11111222 
WAVCIS,ioos:station:WAVCIS:CSI03:1,2013-10-04T00:00:00Z,29.4412,-92.0613,1006.6,11111222 
WAVCIS,ioos:station:WAVCIS:CSI03:1,2013-10-04T01:00:00Z,29.4412,-92.0613,1006.84,11111222 
WAVCIS,ioos:station:WAVCIS:CSI03:1,2013-10-04T02:00:00Z,29.4412,-92.0613,1007.18,11111222 
WAVCIS,ioos:station:WAVCIS:CSI03:1,2013-10-04T03:00:00Z,29.4412,-92.0613,1007.53,11111222 
WAVCIS,ioos:station:WAVCIS:CSI03:1,2013-10-04T04:00:00Z,29.4412,-92.0613,1007.33,11111222 
WAVCIS,ioos:station:WAVCIS:CSI03:1,2013-10-04T05:00:00Z,29.4412,-92.0613,1007.21,11111222 
WAVCIS,ioos:station:WAVCIS:CSI03:1,2013-10-04T06:00:00Z,29.4412,-92.0613,1007.04,11111222 
WAVCIS,ioos:station:WAVCIS:CSI03:1,2013-10-04T07:00:00Z,29.4412,-92.0613,1006.89,11111222 
WAVCIS,ioos:station:WAVCIS:CSI03:1,2013-10-04T08:00:00Z,29.4412,-92.0613,1006.06,11111222 
WAVCIS,ioos:station:WAVCIS:CSI03:1,2013-10-04T09:00:00Z,29.4412,-92.0613,1006.12,11111222 
WAVCIS,ioos:station:WAVCIS:CSI03:1,2013-10-04T10:00:00Z,29.4412,-92.0613,1006.11,11111222 
WAVCIS,ioos:station:WAVCIS:CSI03:1,2013-10-04T11:00:00Z,29.4412,-92.0613,1006.78,11111222 
WAVCIS,ioos:station:WAVCIS:CSI03:1,2013-10-04T12:00:00Z,29.4412,-92.0613,1007.25,11111222 
WAVCIS,ioos:station:WAVCIS:CSI03:1,2013-10-04T13:00:00Z,29.4412,-92.0613,1007.81,11111222 
WAVCIS,ioos:station:WAVCIS:CSI03:1,2013-10-04T14:00:00Z,29.4412,-92.0613,1008.29,11111222 
WAVCIS,ioos:station:WAVCIS:CSI03:1,2013-10-04T15:00:00Z,29.4412,-92.0613,1008.69,11111222 
WAVCIS,ioos:station:WAVCIS:CSI03:1,2013-10-04T16:00:00Z,29.4412,-92.0613,1008.77,11111222 
WAVCIS,ioos:station:WAVCIS:CSI03:1,2013-10-04T17:00:00Z,29.4412,-92.0613,1008.98,11111222 
WAVCIS,ioos:station:WAVCIS:CSI03:1,2013-10-04T18:00:00Z,29.4412,-92.0613,1007.83,11111222 
WAVCIS,ioos:station:WAVCIS:CSI03:1,2013-10-04T19:00:00Z,29.4412,-92.0613,1008.24,11111222 
WAVCIS,ioos:station:WAVCIS:CSI03:1,2013-10-04T20:00:00Z,29.4412,-92.0613,1007.49,11111222 
WAVCIS,ioos:station:WAVCIS:CSI03:1,2013-10-04T21:00:00Z,29.4412,-92.0613,1007.87,11111222 
WAVCIS,ioos:station:WAVCIS:CSI03:1,2013-10-04T22:00:00Z,29.4412,-92.0613,1007.5,11111222 
WAVCIS,ioos:station:WAVCIS:CSI03:1,2013-10-04T23:00:00Z,29.4412,-92.0613,1006.81,11111222 
WAVCIS,ioos:station:WAVCIS:CSI03:1,2013-10-05T00:00:00Z,29.4412,-92.0613,1007.02,11111222 
WAVCIS,ioos:station:WAVCIS:CSI03:1,2013-10-05T01:00:00Z,29.4412,-92.0613,1007.36,11111222 
WAVCIS,ioos:station:WAVCIS:CSI03:1,2013-10-05T02:00:00Z,29.4412,-92.0613,1007.79,11111222 
WAVCIS,ioos:station:WAVCIS:CSI03:1,2013-10-05T03:00:00Z,29.4412,-92.0613,1008.22,11111222 
WAVCIS,ioos:station:WAVCIS:CSI03:1,2013-10-05T04:00:00Z,29.4412,-92.0613,1008.14,11111222 
WAVCIS,ioos:station:WAVCIS:CSI03:1,2013-10-05T05:00:00Z,29.4412,-92.0613,1006.68,11111222 
WAVCIS,ioos:station:WAVCIS:CSI03:1,2013-10-05T06:00:00Z,29.4412,-92.0613,1006.13,11111222 
WAVCIS,ioos:station:WAVCIS:CSI03:1,2013-10-05T07:00:00Z,29.4412,-92.0613,1005.78,11111222 
WAVCIS,ioos:station:WAVCIS:CSI03:1,2013-10-05T08:00:00Z,29.4412,-92.0613,1005.33,11111222 
WAVCIS,ioos:station:WAVCIS:CSI03:1,2013-10-05T09:00:00Z,29.4412,-92.0613,1005.01,11111222 
WAVCIS,ioos:station:WAVCIS:CSI03:1,2013-10-05T10:00:00Z,29.4412,-92.0613,1005.5,11111222 
WAVCIS,ioos:station:WAVCIS:CSI03:1,2013-10-05T11:00:00Z,29.4412,-92.0613,1005.95,11111222 
WAVCIS,ioos:station:WAVCIS:CSI03:1,2013-10-05T12:00:00Z,29.4412,-92.0613,1006.09,11111222 
WAVCIS,ioos:station:WAVCIS:CSI03:1,2013-10-05T13:00:00Z,29.4412,-92.0613,1006.66,11111222 
WAVCIS,ioos:station:WAVCIS:CSI03:1,2013-10-05T14:00:00Z,29.4412,-92.0613,1007.0,11111222 
WAVCIS,ioos:station:WAVCIS:CSI03:1,2013-10-05T15:00:00Z,29.4412,-92.0613,1007.19,11111222 
WAVCIS,ioos:station:WAVCIS:CSI03:1,2013-10-05T16:00:00Z,29.4412,-92.0613,1006.94,11111222 
WAVCIS,ioos:station:WAVCIS:CSI03:1,2013-10-05T17:00:00Z,29.4412,-92.0613,1007.08,11111222 
WAVCIS,ioos:station:WAVCIS:CSI03:1,2013-10-05T18:00:00Z,29.4412,-92.0613,1005.73,11111222 
WAVCIS,ioos:station:WAVCIS:CSI03:1,2013-10-05T19:00:00Z,29.4412,-92.0613,1005.12,11111222 
WAVCIS,ioos:station:WAVCIS:CSI03:1,2013-10-05T20:00:00Z,29.4412,-92.0613,1004.63,11111222 
WAVCIS,ioos:station:WAVCIS:CSI03:1,2013-10-05T21:00:00Z,29.4412,-92.0613,1004.36,11111222 
WAVCIS,ioos:station:WAVCIS:CSI03:1,2013-10-05T22:00:00Z,29.4412,-92.0613,1004.34,11111222 
WAVCIS,ioos:station:WAVCIS:CSI03:1,2013-10-05T23:00:00Z,29.4412,-92.0613,1004.25,11111222 
WAVCIS,ioos:station:WAVCIS:CSI03:1,2013-10-06T00:00:00Z,29.4412,-92.0613,1004.36,11111222 
WAVCIS,ioos:station:WAVCIS:CSI03:1,2013-10-06T01:00:00Z,29.4412,-92.0613,1004.97,11111222 
WAVCIS,ioos:station:WAVCIS:CSI03:1,2013-10-06T02:00:00Z,29.4412,-92.0613,1005.15,11111222 
WAVCIS,ioos:station:WAVCIS:CSI03:1,2013-10-06T03:00:00Z,29.4412,-92.0613,1005.6,11111222 
WAVCIS,ioos:station:WAVCIS:CSI03:1,2013-10-06T04:00:00Z,29.4412,-92.0613,1005.09,11111222 
WAVCIS,ioos:station:WAVCIS:CSI03:1,2013-10-06T05:00:00Z,29.4412,-92.0613,1005.35,11111222 
WAVCIS,ioos:station:WAVCIS:CSI03:1,2013-10-06T06:00:00Z,29.4412,-92.0613,1005.5,11111222 
WAVCIS,ioos:station:WAVCIS:CSI03:1,2013-10-06T07:00:00Z,29.4412,-92.0613,1005.0,11111222 
WAVCIS,ioos:station:WAVCIS:CSI03:1,2013-10-06T08:00:00Z,29.4412,-92.0613,1004.49,11111222 
WAVCIS,ioos:station:WAVCIS:CSI03:1,2013-10-06T09:00:00Z,29.4412,-92.0613,1004.42,11111222 
WAVCIS,ioos:station:WAVCIS:CSI03:1,2013-10-06T10:00:00Z,29.4412,-92.0613,1004.35,11111222 
WAVCIS,ioos:station:WAVCIS:CSI03:1,2013-10-06T11:00:00Z,29.4412,-92.0613,1004.78,11111222 
WAVCIS,ioos:station:WAVCIS:CSI03:1,2013-10-06T12:00:00Z,29.4412,-92.0613,1004.94,11111222 
WAVCIS,ioos:station:WAVCIS:CSI03:1,2013-10-06T13:00:00Z,29.4412,-92.0613,1005.4,11111222 
WAVCIS,ioos:station:WAVCIS:CSI03:1,2013-10-06T14:00:00Z,29.4412,-92.0613,1005.9,11111222 
WAVCIS,ioos:station:WAVCIS:CSI03:1,2013-10-06T15:00:00Z,29.4412,-92.0613,1007.14,11111222 
WAVCIS,ioos:station:WAVCIS:CSI03:1,2013-10-06T16:00:00Z,29.4412,-92.0613,1007.55,11111222 
WAVCIS,ioos:station:WAVCIS:CSI03:1,2013-10-06T17:00:00Z,29.4412,-92.0613,1007.27,11111222 
WAVCIS,ioos:station:WAVCIS:CSI03:1,2013-10-06T18:00:00Z,29.4412,-92.0613,1006.62,11111222 
WAVCIS,ioos:station:WAVCIS:CSI03:1,2013-10-06T19:00:00Z,29.4412,-92.0613,1005.72,11111222 
WAVCIS,ioos:station:WAVCIS:CSI03:1,2013-10-06T20:00:00Z,29.4412,-92.0613,1005.08,11111222 
WAVCIS,ioos:station:WAVCIS:CSI03:1,2013-10-06T21:00:00Z,29.4412,-92.0613,1005.19,11111222 
WAVCIS,ioos:station:WAVCIS:CSI03:1,2013-10-06T22:00:00Z,29.4412,-92.0613,1005.14,11111222 
WAVCIS,ioos:station:WAVCIS:CSI03:1,2013-10-06T23:00:00Z,29.4412,-92.0613,1005.62,11111222 
WAVCIS,ioos:station:WAVCIS:CSI03:1,2013-10-07T00:00:00Z,29.4412,-92.0613,1006.64,11111222 
WAVCIS,ioos:station:WAVCIS:CSI03:1,2013-10-07T01:00:00Z,29.4412,-92.0613,1007.92,11111222 
WAVCIS,ioos:station:WAVCIS:CSI03:1,2013-10-07T02:00:00Z,29.4412,-92.0613,1008.69,11111222 
WAVCIS,ioos:station:WAVCIS:CSI03:1,2013-10-07T03:00:00Z,29.4412,-92.0613,1009.34,11111222 
WAVCIS,ioos:station:WAVCIS:CSI03:1,2013-10-07T04:00:00Z,29.4412,-92.0613,1009.56,11111222 
WAVCIS,ioos:station:WAVCIS:CSI03:1,2013-10-07T05:00:00Z,29.4412,-92.0613,1009.69,11111222 
WAVCIS,ioos:station:WAVCIS:CSI03:1,2013-10-07T06:00:00Z,29.4412,-92.0613,1009.28,11111222 
WAVCIS,ioos:station:WAVCIS:CSI03:1,2013-10-07T07:00:00Z,29.4412,-92.0613,1009.4,11111222 
WAVCIS,ioos:station:WAVCIS:CSI03:1,2013-10-07T08:00:00Z,29.4412,-92.0613,1009.45,11111222 
WAVCIS,ioos:station:WAVCIS:CSI03:1,2013-10-07T09:00:00Z,29.4412,-92.0613,1009.17,11111222 
WAVCIS,ioos:station:WAVCIS:CSI03:1,2013-10-07T10:00:00Z,29.4412,-92.0613,1009.39,11111222 
WAVCIS,ioos:station:WAVCIS:CSI03:1,2013-10-07T11:00:00Z,29.4412,-92.0613,1009.78,11111222 
WAVCIS,ioos:station:WAVCIS:CSI03:1,2013-10-07T12:00:00Z,29.4412,-92.0613,1010.15,11111222 
WAVCIS,ioos:station:WAVCIS:CSI03:1,2013-10-07T13:00:00Z,29.4412,-92.0613,1010.86,11111222 
WAVCIS,ioos:station:WAVCIS:CSI03:1,2013-10-07T14:00:00Z,29.4412,-92.0613,1011.32,11111222 
WAVCIS,ioos:station:WAVCIS:CSI03:1,2013-10-07T15:00:00Z,29.4412,-92.0613,1011.9,11111222 
WAVCIS,ioos:station:WAVCIS:CSI03:1,2013-10-07T16:00:00Z,29.4412,-92.0613,1012.01,11111222 
WAVCIS,ioos:station:WAVCIS:CSI03:1,2013-10-07T17:00:00Z,29.4412,-92.0613,1011.97,11111222 
WAVCIS,ioos:station:WAVCIS:CSI03:1,2013-10-07T18:00:00Z,29.4412,-92.0613,1011.22,11111222 
WAVCIS,ioos:station:WAVCIS:CSI03:1,2013-10-07T19:00:00Z,29.4412,-92.0613,1010.61,11111222 
WAVCIS,ioos:station:WAVCIS:CSI03:1,2013-10-07T20:00:00Z,29.4412,-92.0613,1009.93,11111222 
WAVCIS,ioos:station:WAVCIS:CSI03:1,2013-10-07T21:00:00Z,29.4412,-92.0613,1009.71,11111222 
WAVCIS,ioos:station:WAVCIS:CSI03:1,2013-10-07T22:00:00Z,29.4412,-92.0613,1009.2,11111222 
WAVCIS,ioos:station:WAVCIS:CSI03:1,2013-10-07T23:00:00Z,29.4412,-92.0613,1009.3,11111222 
WAVCIS,ioos:station:WAVCIS:CSI03:1,2013-10-08T00:00:00Z,29.4412,-92.0613,1009.68,11111222 
WAVCIS,ioos:station:WAVCIS:CSI03:1,2013-10-08T01:00:00Z,29.4412,-92.0613,1010.19,11111222 
WAVCIS,ioos:station:WAVCIS:CSI03:1,2013-10-08T02:00:00Z,29.4412,-92.0613,1010.81,11111222 
WAVCIS,ioos:station:WAVCIS:CSI03:1,2013-10-08T03:00:00Z,29.4412,-92.0613,1011.35,11111222 
WAVCIS,ioos:station:WAVCIS:CSI03:1,2013-10-08T04:00:00Z,29.4412,-92.0613,1011.52,11111222 
WAVCIS,ioos:station:WAVCIS:CSI03:1,2013-10-08T05:00:00Z,29.4412,-92.0613,1011.2,11111222 
WAVCIS,ioos:station:WAVCIS:CSI03:1,2013-10-08T06:00:00Z,29.4412,-92.0613,1011.05,11111222 
WAVCIS,ioos:station:WAVCIS:CSI03:1,2013-10-08T07:00:00Z,29.4412,-92.0613,1010.8,11111222 
WAVCIS,ioos:station:WAVCIS:CSI03:1,2013-10-08T08:00:00Z,29.4412,-92.0613,1010.82,11111222 
WAVCIS,ioos:station:WAVCIS:CSI03:1,2013-10-08T09:00:00Z,29.4412,-92.0613,1010.23,11111222 
WAVCIS,ioos:station:WAVCIS:CSI03:1,2013-10-08T10:00:00Z,29.4412,-92.0613,1010.5,11111222 
WAVCIS,ioos:station:WAVCIS:CSI03:1,2013-10-08T11:00:00Z,29.4412,-92.0613,1010.92,11111222 
WAVCIS,ioos:station:WAVCIS:CSI03:1,2013-10-08T12:00:00Z,29.4412,-92.0613,1010.98,11111222 
WAVCIS,ioos:station:WAVCIS:CSI03:1,2013-10-08T13:00:00Z,29.4412,-92.0613,1011.38,11111222 
WAVCIS,ioos:station:WAVCIS:CSI03:1,2013-10-08T14:00:00Z,29.4412,-92.0613,1011.73,11111222 
WAVCIS,ioos:station:WAVCIS:CSI03:1,2013-10-08T15:00:00Z,29.4412,-92.0613,1012.15,11111222 
WAVCIS,ioos:station:WAVCIS:CSI03:1,2013-10-08T16:00:00Z,29.4412,-92.0613,1012.47,11111222 
WAVCIS,ioos:station:WAVCIS:CSI03:1,2013-10-08T17:00:00Z,29.4412,-92.0613,1012.51,11111222 
WAVCIS,ioos:station:WAVCIS:CSI03:1,2013-10-08T18:00:00Z,29.4412,-92.0613,1011.8,11111222 
WAVCIS,ioos:station:WAVCIS:CSI03:1,2013-10-08T19:00:00Z,29.4412,-92.0613,1010.83,11111222 
WAVCIS,ioos:station:WAVCIS:CSI03:1,2013-10-08T20:00:00Z,29.4412,-92.0613,1010.15,11111222 
WAVCIS,ioos:station:WAVCIS:CSI03:1,2013-10-08T21:00:00Z,29.4412,-92.0613,1009.91,11111222 
WAVCIS,ioos:station:WAVCIS:CSI03:1,2013-10-08T22:00:00Z,29.4412,-92.0613,1009.87,11111222 
WAVCIS,ioos:station:WAVCIS:CSI03:1,2013-10-08T23:00:00Z,29.4412,-92.0613,1009.89,11111222 
WAVCIS,ioos:station:WAVCIS:CSI03:1,2013-10-09T00:00:00Z,29.4412,-92.0613,1009.87,11111222 
WAVCIS,ioos:station:WAVCIS:CSI03:1,2013-10-09T01:00:00Z,29.4412,-92.0613,1010.04,11111222 
WAVCIS,ioos:station:WAVCIS:CSI03:1,2013-10-09T02:00:00Z,29.4412,-92.0613,1010.45,11111222 
WAVCIS,ioos:station:WAVCIS:CSI03:1,2013-10-09T03:00:00Z,29.4412,-92.0613,1010.73,11111222 
WAVCIS,ioos:station:WAVCIS:CSI03:1,2013-10-09T04:00:00Z,29.4412,-92.0613,1010.74,11111222 
WAVCIS,ioos:station:WAVCIS:CSI03:1,2013-10-09T05:00:00Z,29.4412,-92.0613,1010.56,11111222 
WAVCIS,ioos:station:WAVCIS:CSI03:1,2013-10-09T06:00:00Z,29.4412,-92.0613,1010.31,11111222 
WAVCIS,ioos:station:WAVCIS:CSI03:1,2013-10-09T07:00:00Z,29.4412,-92.0613,1010.3,11111222 
WAVCIS,ioos:station:WAVCIS:CSI03:1,2013-10-09T08:00:00Z,29.4412,-92.0613,1010.3,11111222 
WAVCIS,ioos:station:WAVCIS:CSI03:1,2013-10-09T09:00:00Z,29.4412,-92.0613,1010.12,11111222 
WAVCIS,ioos:station:WAVCIS:CSI03:1,2013-10-09T10:00:00Z,29.4412,-92.0613,1010.17,11111222 
WAVCIS,ioos:station:WAVCIS:CSI03:1,2013-10-09T11:00:00Z,29.4412,-92.0613,1010.54,11111222 
WAVCIS,ioos:station:WAVCIS:CSI03:1,2013-10-09T12:00:00Z,29.4412,-92.0613,1010.8,11111222 
WAVCIS,ioos:station:WAVCIS:CSI03:1,2013-10-09T13:00:00Z,29.4412,-92.0613,1011.16,11111222 
WAVCIS,ioos:station:WAVCIS:CSI03:1,2013-10-09T14:00:00Z,29.4412,-92.0613,1011.67,11111222 
WAVCIS,ioos:station:WAVCIS:CSI03:1,2013-10-09T15:00:00Z,29.4412,-92.0613,1012.42,11111222 
WAVCIS,ioos:station:WAVCIS:CSI03:1,2013-10-09T16:00:00Z,29.4412,-92.0613,1012.79,11111222 
WAVCIS,ioos:station:WAVCIS:CSI03:1,2013-10-09T17:00:00Z,29.4412,-92.0613,1012.87,11111222 
WAVCIS,ioos:station:WAVCIS:CSI03:1,2013-10-09T18:00:00Z,29.4412,-92.0613,1012.4,11111222 
WAVCIS,ioos:station:WAVCIS:CSI03:1,2013-10-09T19:00:00Z,29.4412,-92.0613,1011.64,11111222 
WAVCIS,ioos:station:WAVCIS:CSI03:1,2013-10-09T20:00:00Z,29.4412,-92.0613,1011.11,11111222 
WAVCIS,ioos:station:WAVCIS:CSI03:1,2013-10-09T21:00:00Z,29.4412,-92.0613,1010.9,11111222 
WAVCIS,ioos:station:WAVCIS:CSI03:1,2013-10-09T22:00:00Z,29.4412,-92.0613,1010.56,11111222 
WAVCIS,ioos:station:WAVCIS:CSI03:1,2013-10-09T23:00:00Z,29.4412,-92.0613,1010.3,11111222 
WAVCIS,ioos:station:WAVCIS:CSI03:1,2013-10-10T00:00:00Z,29.4412,-92.0613,1010.58,11111222 
WAVCIS,ioos:station:WAVCIS:CSI03:1,2013-10-10T01:00:00Z,29.4412,-92.0613,1010.81,11111222 
WAVCIS,ioos:station:WAVCIS:CSI03:1,2013-10-10T02:00:00Z,29.4412,-92.0613,1011.12,11111222 
WAVCIS,ioos:station:WAVCIS:CSI03:1,2013-10-10T03:00:00Z,29.4412,-92.0613,1011.26,11111222 
WAVCIS,ioos:station:WAVCIS:CSI03:1,2013-10-10T04:00:00Z,29.4412,-92.0613,1011.13,11111222 
WAVCIS,ioos:station:WAVCIS:CSI03:1,2013-10-10T05:00:00Z,29.4412,-92.0613,1011.14,11111222 
WAVCIS,ioos:station:WAVCIS:CSI03:1,2013-10-10T06:00:00Z,29.4412,-92.0613,1011.26,11111222 
WAVCIS,ioos:station:WAVCIS:CSI03:1,2013-10-10T07:00:00Z,29.4412,-92.0613,1011.39,11111222 
WAVCIS,ioos:station:WAVCIS:CSI03:1,2013-10-10T08:00:00Z,29.4412,-92.0613,1011.48,11111222 
WAVCIS,ioos:station:WAVCIS:CSI03:1,2013-10-10T09:00:00Z,29.4412,-92.0613,1011.23,11111222 
WAVCIS,ioos:station:WAVCIS:CSI03:1,2013-10-10T10:00:00Z,29.4412,-92.0613,1011.0,11111222 
WAVCIS,ioos:station:WAVCIS:CSI03:1,2013-10-10T11:00:00Z,29.4412,-92.0613,1011.22,11111222 
WAVCIS,ioos:station:WAVCIS:CSI03:1,2013-10-10T12:00:00Z,29.4412,-92.0613,1011.49,11111222 
WAVCIS,ioos:station:WAVCIS:CSI03:1,2013-10-10T13:00:00Z,29.4412,-92.0613,1011.69,11111222 
WAVCIS,ioos:station:WAVCIS:CSI03:1,2013-10-10T14:00:00Z,29.4412,-92.0613,1012.05,11111222 
WAVCIS,ioos:station:WAVCIS:CSI03:1,2013-10-10T15:00:00Z,29.4412,-92.0613,1012.45,11111222 
WAVCIS,ioos:station:WAVCIS:CSI03:1,2013-10-10T16:00:00Z,29.4412,-92.0613,1012.9,11111222 
WAVCIS,ioos:station:WAVCIS:CSI03:1,2013-10-10T17:00:00Z,29.4412,-92.0613,1012.83,11111222 
WAVCIS,ioos:station:WAVCIS:CSI03:1,2013-10-10T18:00:00Z,29.4412,-92.0613,1012.14,11111222 
WAVCIS,ioos:station:WAVCIS:CSI03:1,2013-10-10T19:00:00Z,29.4412,-92.0613,1011.16,11111222 
WAVCIS,ioos:station:WAVCIS:CSI03:1,2013-10-10T20:00:00Z,29.4412,-92.0613,1010.46,11111222 
WAVCIS,ioos:station:WAVCIS:CSI03:1,2013-10-10T21:00:00Z,29.4412,-92.0613,1010.21,11111222 
WAVCIS,ioos:station:WAVCIS:CSI03:1,2013-10-10T22:00:00Z,29.4412,-92.0613,1009.73,11111222 
WAVCIS,ioos:station:WAVCIS:CSI03:1,2013-10-10T23:00:00Z,29.4412,-92.0613,1009.21,11111222 
WAVCIS,ioos:station:WAVCIS:CSI03:1,2013-10-11T00:00:00Z,29.4412,-92.0613,1009.0,11111222 
WAVCIS,ioos:station:WAVCIS:CSI03:1,2013-10-11T01:00:00Z,29.4412,-92.0613,1009.31,11111222 
WAVCIS,ioos:station:WAVCIS:CSI03:1,2013-10-11T02:00:00Z,29.4412,-92.0613,1009.42,11111222 
WAVCIS,ioos:station:WAVCIS:CSI03:1,2013-10-11T03:00:00Z,29.4412,-92.0613,1009.64,11111222 
WAVCIS,ioos:station:WAVCIS:CSI03:1,2013-10-11T04:00:00Z,29.4412,-92.0613,1009.49,11111222 
WAVCIS,ioos:station:WAVCIS:CSI03:1,2013-10-11T05:00:00Z,29.4412,-92.0613,1009.36,11111222 
WAVCIS,ioos:station:WAVCIS:CSI03:1,2013-10-11T06:00:00Z,29.4412,-92.0613,1008.86,11111222 
WAVCIS,ioos:station:WAVCIS:CSI03:1,2013-10-11T07:00:00Z,29.4412,-92.0613,1008.98,11111222 
WAVCIS,ioos:station:WAVCIS:CSI03:1,2013-10-11T08:00:00Z,29.4412,-92.0613,1008.72,11111222 
WAVCIS,ioos:station:WAVCIS:CSI03:1,2013-10-11T09:00:00Z,29.4412,-92.0613,1008.46,11111222 
WAVCIS,ioos:station:WAVCIS:CSI03:1,2013-10-11T10:00:00Z,29.4412,-92.0613,1008.71,11111222 
WAVCIS,ioos:station:WAVCIS:CSI03:1,2013-10-11T11:00:00Z,29.4412,-92.0613,1008.89,11111222 
WAVCIS,ioos:station:WAVCIS:CSI03:1,2013-10-11T12:00:00Z,29.4412,-92.0613,1009.14,11111222 
WAVCIS,ioos:station:WAVCIS:CSI03:1,2013-10-11T13:00:00Z,29.4412,-92.0613,1009.16,11111222 
WAVCIS,ioos:station:WAVCIS:CSI03:1,2013-10-11T14:00:00Z,29.4412,-92.0613,1009.28,11111222 
WAVCIS,ioos:station:WAVCIS:CSI03:1,2013-10-11T15:00:00Z,29.4412,-92.0613,1009.78,11111222 
WAVCIS,ioos:station:WAVCIS:CSI03:1,2013-10-11T16:00:00Z,29.4412,-92.0613,1010.45,11111222 
WAVCIS,ioos:station:WAVCIS:CSI03:1,2013-10-11T17:00:00Z,29.4412,-92.0613,1010.49,11111222 
WAVCIS,ioos:station:WAVCIS:CSI03:1,2013-10-11T18:00:00Z,29.4412,-92.0613,1009.78,11111222 
WAVCIS,ioos:station:WAVCIS:CSI03:1,2013-10-11T19:00:00Z,29.4412,-92.0613,1008.94,11111222 
WAVCIS,ioos:station:WAVCIS:CSI03:1,2013-10-11T20:00:00Z,29.4412,-92.0613,1008.32,11111222 
WAVCIS,ioos:station:WAVCIS:CSI03:1,2013-10-11T21:00:00Z,29.4412,-92.0613,1008.05,11111222 
WAVCIS,ioos:station:WAVCIS:CSI03:1,2013-10-11T22:00:00Z,29.4412,-92.0613,1007.87,11111222 